Temperature
18 18 18 18 18 18 18 18 18 18 18 18 19 19 19 19 19 19 19 19 19 18 18 18 18 18 18 18 18 18 18 18 18 18 18 18 18 18 18 17 17 17 17
19 18 18 18 18 18 18 18 18 18 18 18 18 18 18 18 18 19 19 19 18 18 18 18 18 18 18 18 18 18 18 18 18 18 18 17 17 17 17 17 17 17 17
19 18 18 18 18 18 18 18 18 18 18 18 18 18 18 18 18 18 18 18 18 18 18 18 18 18 18 18 18 18 18 18 18 18 17 17 17 17 17 17 17 17 17
19 18 18 18 18 18 18 18 18 18 18 18 18 18 18 18 18 18 18 18 18 18 18 18 18 18 18 18 18 18 18 18 18 17 17 17 16 17 17 17 17 17 17
18 18 18 18 18 18 18 18 18 18 18 18 18 18 18 18 18 18 18 18 18 18 18 18 18 18 18 18 18 18 18 18 18 17 17 17 17 17 17 17 17 17 17
18 18 18 18 18 18 18 18 18 18 18 18 18 18 18 18 18 18 18 18 18 18 18 18 18 18 18 18 18 18 18 18 17 17 17 17 17 17 17 17 17 17 17
18 18 18 18 18 18 18 18 18 18 18 18 18 18 18 18 18 18 18 18 18 18 18 18 18 18 18 18 18 18 18 17 17 17 17 17 17 17 17 17 17 17 17
18 18 18 18 18 18 18 18 18 18 18 18 18 18 18 18 18 18 18 18 18 18 18 18 18 18 18 18 18 18 18 17 17 17 17 17 17 17 17 17 17 17 17
18 18 18 18 18 18 18 18 18 18 18 18 18 18 18 18 18 18 18 18 18 18 18 18 18 18 18 18 18 18 18 17 17 17 17 17 17 17 17 17 17 17 17
18 18 18 18 18 17 18 18 18 18 18 18 18 18 18 18 18 18 18 18 18 18 18 18 18 18 18 18 18 18 18 18 17 17 17 17 18 18 17 17 17 17 17
18 18 18 18 18 18 18 18 18 18 18 18 18 18 18 17 17 17 17 18 18 18 18 18 18 18 18 18 18 18 18 17 18 18 17 17 18 18 17 17 17 17 17
18 18 18 18 18 18 18 17 17 17 17 17 17 17 17 17 17 17 17 18 18 18 18 18 18 18 17 17 18 18 17 17 18 18 17 18 18 18 18 17 17 17 17
19 18 18 18 18 18 18 18 18 18 17 17 17 17 17 17 17 17 17 17 17 17 17 17 17 17 17 17 18 18 17 18 18 18 18 18 18 18 18 18 17 17 17
19 18 18 18 18 18 18 18 18 18 18 18 18 18 17 18 17 17 17 17 17 17 17 17 17 17 17 17 17 17 17 18 18 18 18 18 18 18 18 18 18 17 17
19 18 18 18 18 18 18 18 18 18 18 18 18 18 18 18 18 17 17 17 17 17 17 17 17 17 17 17 17 17 17 17 18 18 18 18 18 18 18 18 18 17 17
19 18 18 18 18 18 18 18 18 18 18 18 18 18 18 18 18 17 17 18 18 18 18 17 17 17 17 17 17 17 17 18 17 17 18 18 18 18 18 18 18 18 17
19 19 18 18 18 18 18 18 18 18 18 18 18 18 18 18 18 18 18 18 18 18 17 17 17 17 18 18 18 17 18 18 18 17 17 17 18 18 18 18 18 18 17
19 19 19 18 18 18 18 18 18 18 18 18 18 18 18 18 18 18 18 18 18 18 18 18 18 18 18 18 18 18 18 18 17 17 18 17 18 18 18 18 18 18 17
19 19 19 19 18 18 18 18 18 18 18 18 18 18 18 18 18 18 18 18 18 18 18 18 18 18 18 18 18 18 18 18 18 18 18 18 17 17 17 18 18 18 18
19 19 19 19 19 18 18 18 18 18 18 18 18 18 18 18 18 18 18 18 18 18 18 18 18 18 18 18 18 18 18 18 18 18 18 18 18 18 18 17 17 18 18
20 19 19 19 19 19 18 18 18 18 18 18 18 18 18 18 18 18 18 18 18 18 18 18 18 18 18 18 18 18 19 18 18 18 18 18 18 18 18 18 17 17 17
20 20 19 19 19 19 19 19 18 18 18 18 18 18 18 18 18 18 18 18 18 18 18 18 18 18 18 18 18 19 19 19 18 19 18 18 18 18 18 18 17 17 17
20 20 20 20 19 19 19 19 18 18 18 18 18 18 18 18 18 18 18 18 18 18 18 18 18 18 18 18 18 18 19 20 19 19 18 18 18 18 18 18 18 17 17
21 20 20 20 20 20 19 19 19 19 19 19 19 19 19 19 18 18 18 18 18 18 18 18 18 18 18 18 18 18 18 18 18 19 18 18 18 18 18 18 18 17 17
21 21 20 20 20 20 20 19 19 19 19 19 19 19 19 19 18 18 18 18 18 18 18 18 18 18 18 18 18 18 18 17 18 18 18 18 18 18 18 17 17 17 17
21 21 20 20 20 20 20 20 20 19 19 19 19 19 19 19 18 18 18 18 18 18 18 18 18 18 18 18 17 17 18 18 18 18 18 18 18 18 18 17 17 17 17
Wind_Speed
7 9 11 13 15 16 18 18 19 19 20 20 20 20 19 19 19 19 19 19 18 17 17 16 15 15 14 14 14 14 14 14 14 14 14 14 14 14 14 13 12 14 15
9 11 12 14 16 17 18 19 19 19 19 19 19 18 18 18 18 18 18 18 17 16 16 15 15 14 14 13 13 13 13 13 12 13 13 13 13 13 11 9 8 14 14
11 13 13 15 16 17 18 19 19 19 19 18 17 17 17 17 17 17 16 16 15 15 15 14 14 13 13 12 12 12 12 12 11 11 10 11 13 12 11 11 13 14 13
12 13 14 17 17 17 18 18 19 19 18 17 17 16 16 16 16 16 15 14 14 14 14 13 13 12 12 11 11 11 11 11 10 8 7 9 11 12 11 11 12 12 12
13 14 16 17 17 17 17 17 18 18 18 17 16 15 15 15 15 14 13 13 13 13 12 12 12 11 10 10 10 10 10 9 7 5 8 8 10 11 10 11 11 11 11
14 15 18 17 17 16 16 16 16 17 17 16 15 14 14 13 13 13 12 12 11 11 11 11 11 10 9 9 8 8 8 7 7 6 7 7 9 10 9 9 10 10 10
13 14 17 16 16 16 15 15 15 16 16 15 14 13 12 12 12 11 11 10 10 10 10 9 9 9 8 8 7 7 6 4 3 5 6 6 8 9 8 8 9 9 9
13 13 16 16 15 15 15 14 15 15 14 14 13 12 11 11 10 10 9 9 9 8 8 8 8 7 7 6 6 6 5 4 4 5 5 6 9 7 7 8 8 9 9
12 12 13 15 15 14 14 13 14 13 13 12 12 11 10 10 9 9 8 8 7 7 7 7 6 6 5 5 5 5 4 3 2 4 5 6 9 6 7 7 8 8 9
10 11 12 12 12 13 13 13 12 12 11 11 11 10 10 10 9 9 8 7 6 6 6 6 5 5 5 5 5 4 5 6 4 5 5 8 9 7 7 6 7 8 9
9 9 10 11 10 11 11 13 12 11 11 11 10 10 9 9 9 9 7 7 6 5 5 5 4 5 5 6 5 5 7 4 3 3 3 9 8 7 7 7 7 8 8
11 10 9 9 9 10 9 10 9 9 9 8 7 8 6 6 5 6 8 6 5 5 6 5 5 6 7 6 8 9 5 3 3 3 5 8 7 7 8 8 8 8 8
12 10 10 8 8 8 6 7 6 6 6 6 7 6 5 5 6 6 6 7 6 7 6 7 8 5 4 2 2 4 3 3 2 2 5 8 7 8 8 8 9 9 9
12 11 10 9 8 7 6 5 5 5 4 4 6 6 5 3 3 4 3 4 4 4 3 3 3 3 2 2 2 2 3 4 2 2 5 8 8 8 9 9 9 9 10
12 12 10 9 8 7 5 4 4 4 4 4 4 4 4 3 3 3 2 2 3 3 4 3 3 3 3 4 3 3 3 3 3 3 4 8 9 9 9 9 10 10 10
12 11 10 10 9 7 6 5 4 4 3 4 4 4 4 3 2 2 3 2 2 3 2 3 3 3 3 2 3 3 4 4 3 4 4 6 11 11 10 10 10 11 11
12 11 11 10 10 9 8 7 5 5 5 3 3 4 4 4 3 2 2 2 2 2 3 2 2 3 3 3 3 3 3 4 3 4 5 4 6 11 12 12 11 11 12
12 11 11 10 10 10 8 7 5 5 4 3 4 4 5 4 4 3 2 2 2 2 3 2 3 3 2 2 2 3 3 3 4 4 5 5 5 5 9 12 11 11 12
12 11 11 10 10 10 9 7 6 5 5 4 5 5 5 5 5 4 3 2 3 3 3 3 3 3 3 2 3 3 3 3 3 4 4 4 4 4 5 9 11 11 11
12 12 11 11 11 10 8 7 6 6 6 5 5 5 5 6 6 5 4 3 3 2 3 2 2 3 3 3 3 2 3 3 3 3 3 3 3 4 5 4 6 9 12
13 12 12 12 11 9 8 8 7 7 6 6 6 6 7 7 6 5 4 3 3 3 2 3 3 4 4 2 2 2 3 3 3 3 3 3 2 3 3 4 5 5 6
14 14 13 13 12 12 9 8 6 6 6 6 5 6 7 7 7 7 6 4 4 3 3 4 4 3 3 3 3 3 3 3 3 3 3 3 2 2 3 4 4 4 5
14 15 14 14 13 13 11 9 7 6 6 6 6 6 7 8 8 7 6 5 4 5 4 4 4 5 3 3 3 2 2 1 1 2 3 3 2 2 3 2 4 4 5
15 14 14 14 14 13 12 11 11 8 8 7 6 6 7 8 8 8 7 6 6 5 4 5 5 4 5 4 3 3 3 2 2 1 3 3 3 3 4 3 3 4 4
14 14 13 14 14 13 13 12 11 10 8 7 6 6 7 7 8 8 8 7 6 6 6 5 4 5 5 5 4 3 4 4 5 4 3 3 3 3 3 4 3 3 3
13 13 13 13 14 14 14 13 13 12 10 8 8 7 7 7 7 9 8 7 7 6 6 6 6 7 6 5 5 4 4 4 4 4 4 5 4 3 2 3 3 3 4
Wind_Direction
127 120 121 123 124 123 123 121 122 122 121 120 119 118 117 115 113 113 113 112 112 111 111 110 109 106 105 104 104 104 105 108 110 112 113 113 113 113 115 124 130 113 116
128 123 124 126 124 123 123 121 122 125 121 120 118 118 118 117 115 113 113 113 113 113 113 112 109 107 106 105 104 105 107 110 113 116 119 119 114 113 116 114 95 111 122
127 127 129 124 123 124 124 123 122 122 121 120 119 119 119 118 116 114 115 115 115 114 113 111 108 108 107 106 105 107 108 109 114 124 141 125 118 116 117 111 108 119 124
127 129 127 126 124 124 123 123 124 123 121 120 121 120 120 120 119 118 118 117 117 117 115 113 111 110 109 108 108 108 109 110 120 155 139 116 120 119 123 123 124 124 125
124 123 121 125 124 124 123 124 125 125 124 123 121 120 121 122 122 122 121 118 118 118 118 116 113 111 109 108 109 110 113 118 142 174 108 110 113 122 129 132 133 132 132
127 126 124 128 126 124 124 125 126 127 126 125 124 124 124 125 124 123 122 120 120 121 121 119 117 114 112 112 113 114 119 142 183 123 116 123 118 127 134 139 143 142 140
126 126 126 129 129 128 127 127 129 130 130 129 128 127 127 127 125 124 123 123 122 124 124 126 125 121 118 119 119 120 129 180 153 117 123 124 112 126 139 146 150 149 148
128 128 128 130 130 130 130 130 131 132 133 133 132 132 133 131 129 127 126 126 124 126 130 131 132 129 125 124 125 127 144 218 143 124 125 119 114 131 145 154 156 157 157
130 131 133 137 136 135 134 135 134 135 135 135 135 136 136 135 135 133 132 132 131 132 134 136 135 133 131 132 133 141 154 258 183 137 136 125 130 147 155 164 169 169 169
132 133 136 137 137 141 139 138 138 138 136 136 138 140 144 147 146 148 152 142 144 143 143 145 143 141 141 142 147 159 185 229 186 160 149 132 143 163 171 176 182 179 176
138 140 141 137 141 142 141 141 147 146 143 149 148 152 163 159 152 160 137 139 152 157 160 161 156 157 164 164 166 181 208 209 164 160 133 125 159 179 188 188 190 190 189
148 147 144 144 145 145 143 144 155 154 151 156 150 156 154 146 151 144 135 158 167 170 175 176 177 188 206 175 170 195 201 180 185 167 137 142 175 192 198 199 201 200 198
152 154 156 151 150 147 147 152 150 143 148 155 153 158 155 160 158 155 156 165 174 185 184 170 192 199 190 177 192 190 187 204 189 187 140 156 187 202 207 208 206 205 205
159 162 161 159 160 161 157 150 155 154 155 156 158 174 168 166 164 151 166 164 174 180 186 191 190 187 189 201 219 205 209 223 205 201 147 166 197 208 213 216 214 214 214
167 168 168 167 166 166 168 174 162 161 168 166 174 182 186 179 173 160 165 181 188 182 191 197 201 191 202 203 210 203 221 234 239 235 176 176 200 212 219 222 220 219 221
173 173 172 176 174 174 180 186 177 181 182 189 186 186 201 191 179 187 183 186 192 201 200 203 192 200 218 205 215 219 231 227 222 246 240 194 199 210 220 225 227 225 226
178 177 178 182 182 184 190 192 186 189 189 200 193 193 204 200 187 204 206 204 198 193 189 203 195 205 210 205 213 229 235 242 227 237 249 246 211 202 211 222 228 228 229
182 181 186 188 185 189 194 194 192 194 195 204 204 202 208 212 212 225 219 211 197 211 200 199 214 211 207 218 221 235 232 223 232 230 237 239 245 230 205 210 222 226 229
187 185 187 191 189 192 191 193 200 196 202 209 213 213 204 207 212 223 220 204 210 216 222 224 197 223 216 232 229 215 233 227 220 224 233 237 237 248 239 193 205 219 226
189 189 189 191 192 191 190 192 201 204 206 210 213 212 211 208 212 226 213 207 225 221 224 220 214 233 245 241 258 239 239 229 227 221 236 228 226 233 236 230 211 211 213
191 192 193 195 190 193 195 198 200 204 208 208 211 207 209 214 210 220 231 201 224 225 233 225 227 220 232 230 250 241 219 213 215 217 228 243 227 232 233 231 240 240 207
193 195 196 198 196 198 200 204 207 211 213 210 214 202 210 212 213 211 220 225 216 222 227 226 230 243 236 216 249 261 236 195 203 216 214 218 235 226 225 226 231 234 246
195 197 199 199 199 202 201 203 202 202 215 209 207 206 210 212 215 223 218 228 229 232 226 227 228 233 238 227 233 260 273 266 259 191 217 222 231 253 251 240 232 233 235
197 196 198 197 200 201 202 208 208 210 215 215 212 206 206 211 217 219 222 222 226 232 226 230 222 231 238 241 224 233 260 291 275 252 232 221 230 249 266 259 240 227 231
197 195 196 196 200 201 205 207 211 218 220 218 214 211 219 213 217 221 220 221 221 228 227 234 231 236 233 241 245 238 239 239 248 261 269 273 256 253 244 242 244 243 235
195 195 195 195 200 201 205 208 212 219 220 222 218 217 217 217 216 217 220 221 223 226 223 226 231 230 236 241 250 249 245 249 247 253 263 265 266 259 254 251 248 244 242
Height
1518 1518 1517 1519 1521 1522 1523 1525 1527 1529 1531 1533 1536 1537 1539 1541 1543 1545 1547 1548 1550 1552 1553 1554 1555 1556 1557 1558 1558 1559 1559 1560 1560 1561 1561 1562 1563 1564 1564 1565 1567 1567 1567
1519 1519 1519 1521 1523 1525 1526 1528 1530 1532 1534 1536 1538 1541 1543 1545 1546 1548 1550 1551 1553 1554 1555 1556 1557 1558 1559 1560 1560 1561 1561 1561 1562 1562 1563 1564 1565 1565 1566 1567 1568 1569 1569
1520 1521 1522 1523 1526 1528 1529 1531 1533 1535 1537 1539 1541 1543 1545 1547 1549 1550 1552 1554 1555 1556 1557 1558 1559 1560 1561 1562 1562 1562 1562 1563 1563 1564 1565 1567 1567 1567 1568 1569 1570 1570 1571
1522 1523 1524 1525 1528 1530 1532 1534 1536 1538 1540 1542 1544 1546 1548 1550 1551 1553 1554 1556 1557 1558 1559 1560 1561 1562 1562 1563 1563 1564 1564 1565 1565 1566 1569 1570 1570 1569 1569 1570 1571 1572 1572
1524 1525 1526 1528 1530 1533 1535 1537 1539 1541 1543 1545 1547 1548 1550 1552 1554 1555 1557 1558 1559 1560 1561 1562 1562 1563 1564 1564 1565 1565 1566 1566 1567 1569 1571 1571 1571 1570 1571 1572 1572 1573 1574
1527 1529 1529 1531 1533 1535 1537 1540 1542 1544 1545 1547 1549 1551 1553 1554 1556 1557 1558 1560 1561 1561 1562 1563 1564 1564 1565 1566 1566 1567 1567 1568 1569 1572 1572 1572 1573 1572 1572 1573 1574 1574 1575
1529 1531 1532 1533 1536 1538 1540 1542 1544 1546 1548 1549 1551 1553 1555 1556 1558 1559 1560 1561 1562 1563 1563 1564 1565 1566 1566 1567 1567 1568 1568 1569 1572 1573 1573 1573 1573 1573 1573 1574 1575 1575 1576
1532 1533 1534 1536 1538 1540 1542 1544 1546 1548 1550 1551 1553 1555 1556 1558 1559 1560 1561 1562 1563 1564 1565 1565 1566 1567 1567 1568 1568 1569 1569 1570 1573 1574 1574 1574 1573 1574 1574 1575 1576 1576 1577
1534 1536 1537 1539 1540 1543 1544 1546 1548 1550 1551 1553 1555 1556 1558 1559 1560 1561 1562 1563 1564 1565 1566 1567 1567 1568 1568 1569 1569 1570 1570 1571 1574 1574 1575 1575 1574 1574 1575 1575 1576 1577 1578
1536 1538 1540 1542 1543 1545 1547 1548 1550 1552 1553 1555 1556 1557 1558 1560 1561 1562 1563 1564 1565 1566 1567 1567 1568 1569 1569 1570 1570 1570 1571 1572 1575 1575 1576 1575 1574 1574 1575 1576 1577 1577 1578
1537 1539 1541 1543 1545 1547 1549 1550 1552 1553 1555 1556 1558 1558 1560 1562 1563 1564 1565 1565 1566 1567 1567 1568 1569 1569 1570 1570 1571 1571 1572 1574 1575 1576 1575 1574 1574 1574 1575 1576 1577 1577 1578
1538 1540 1542 1544 1546 1549 1551 1552 1554 1556 1557 1558 1559 1560 1562 1562 1564 1565 1565 1566 1566 1567 1568 1568 1569 1570 1571 1572 1572 1572 1573 1574 1575 1575 1575 1574 1574 1574 1575 1576 1576 1577 1577
1539 1541 1543 1545 1547 1550 1551 1553 1555 1557 1557 1559 1560 1561 1562 1563 1564 1565 1566 1566 1567 1568 1569 1569 1570 1571 1572 1573 1573 1574 1574 1575 1575 1576 1575 1574 1574 1574 1574 1575 1576 1576 1577
1540 1542 1544 1546 1548 1550 1552 1554 1555 1557 1558 1560 1560 1561 1563 1564 1565 1566 1566 1567 1567 1568 1569 1570 1570 1571 1571 1572 1572 1573 1573 1574 1574 1575 1574 1573 1573 1574 1574 1574 1575 1575 1576
1541 1543 1545 1546 1548 1549 1551 1554 1556 1557 1559 1560 1561 1562 1563 1564 1565 1565 1566 1566 1567 1568 1568 1568 1569 1570 1570 1571 1571 1572 1572 1573 1573 1574 1573 1572 1572 1572 1573 1573 1573 1573 1574
1540 1543 1545 1546 1548 1549 1551 1554 1556 1557 1558 1560 1561 1562 1562 1564 1564 1565 1565 1566 1567 1567 1568 1568 1569 1569 1569 1570 1570 1571 1571 1572 1572 1572 1573 1572 1571 1571 1571 1571 1572 1572 1572
1540 1542 1544 1546 1548 1549 1552 1554 1556 1557 1558 1560 1561 1561 1562 1563 1564 1565 1566 1566 1566 1566 1566 1567 1567 1568 1568 1569 1569 1569 1570 1570 1571 1570 1571 1571 1571 1570 1569 1570 1570 1570 1571
1539 1541 1543 1546 1547 1549 1551 1553 1555 1557 1558 1559 1560 1561 1561 1562 1563 1564 1565 1566 1565 1566 1566 1566 1567 1567 1567 1568 1568 1568 1569 1568 1568 1568 1569 1569 1569 1569 1568 1567 1568 1568 1568
1537 1539 1542 1544 1546 1548 1550 1552 1554 1555 1556 1558 1559 1560 1561 1561 1562 1563 1564 1564 1564 1565 1565 1566 1566 1566 1566 1567 1567 1567 1567 1567 1567 1567 1568 1567 1567 1566 1567 1566 1565 1566 1566
1535 1538 1540 1542 1544 1547 1549 1551 1553 1554 1555 1556 1558 1558 1559 1560 1561 1562 1563 1563 1563 1564 1564 1564 1564 1564 1565 1565 1566 1566 1566 1566 1566 1566 1566 1566 1565 1565 1565 1565 1564 1564 1563
1533 1536 1538 1540 1542 1545 1547 1549 1551 1553 1554 1555 1556 1557 1558 1559 1560 1560 1562 1561 1561 1562 1562 1563 1563 1563 1564 1564 1565 1565 1565 1565 1565 1564 1564 1565 1564 1564 1563 1563 1562 1562 1562
1530 1533 1535 1538 1540 1543 1545 1547 1549 1551 1552 1553 1555 1555 1556 1557 1558 1559 1559 1560 1560 1560 1560 1561 1561 1562 1562 1563 1563 1564 1563 1564 1563 1563 1563 1562 1562 1562 1562 1561 1560 1560 1560
1527 1529 1532 1535 1537 1540 1543 1545 1547 1548 1550 1551 1552 1553 1554 1555 1556 1557 1558 1558 1558 1559 1559 1559 1559 1560 1561 1561 1561 1562 1562 1561 1562 1562 1561 1561 1561 1560 1560 1559 1558 1558 1558
1524 1526 1529 1531 1534 1537 1539 1542 1544 1546 1548 1549 1550 1552 1552 1553 1554 1555 1555 1556 1556 1557 1557 1557 1558 1558 1558 1559 1560 1559 1560 1560 1560 1560 1560 1560 1559 1558 1558 1557 1557 1556 1556
1521 1523 1526 1528 1531 1533 1536 1538 1540 1543 1545 1547 1548 1549 1550 1551 1551 1552 1552 1553 1553 1554 1554 1554 1555 1555 1556 1556 1557 1557 1557 1558 1558 1558 1558 1558 1557 1556 1556 1555 1555 1554 1554
1517 1520 1522 1524 1526 1529 1532 1534 1536 1539 1541 1543 1544 1546 1547 1548 1548 1548 1549 1550 1550 1551 1551 1552 1552 1552 1553 1553 1554 1555 1555 1555 1556 1555 1555 1555 1554 1554 1553 1553 1552 1552 1551